[[{"header":{"parameterUnit":"m.s-1","parameterCategory":1,"la1":30.2991,"la2":30.254,"lo1":-89.0895,"lo2":-89.0444,"dy":0.0017,"dx":0.0017,"nx":28,"ny":28,"refTime":"2025-05-29T03:00:00:Z","depth":0,"parameterNumber":2,"parameterNumberName":"U-component_of_WINDS"},"data":[0,0,0,0,0,0,0,0,0,0,0,0,0,0,0,0,0,0,0,0,0,0,0,0,0,0,0,0,0,0,0,0,0,0,0,0,0,0,0,0,0,0,0,0,0,0,0,0,0,0,0,0,0,0,0,0,0,0,3.0186,3.0189,0,3.0432,3.0434,3.0437,3.0576,3.0577,3.0577,3.0578,3.0828,3.0834,3.084,0,0,0,0,0,0,0,0,0,0,0,0,0,2.9837,2.9842,3.0186,3.0189,3.0192,3.0431,3.0435,3.0438,3.0576,3.0577,3.0577,3.0578,3.0826,3.0833,3.0841,0,0,0,0,0,0,0,0,0,0,0,0,0,3.0026,2.9844,3.0186,3.029,3.0302,3.0431,3.0435,3.0439,3.0576,3.0577,3.0578,3.0578,3.0824,3.0833,3.0842,3.0885,0,0,3.0871,3.0875,0,0,0,0,0,0,0,0,3.0015,3.0038,3.0272,3.0283,3.0297,3.0474,3.0403,3.0588,3.0576,3.0472,3.0578,3.0579,3.071,3.0728,3.0773,3.0897,3.0908,3.0871,3.0877,3.0881,3.0884,0,0,0,0,0,0,0,3.0001,3.0029,3.0283,3.0275,3.029,3.0324,3.0352,3.0439,3.0584,3.0481,3.0492,3.0519,3.0717,3.0764,3.078,3.0911,3.0871,3.0879,3.0885,3.0889,3.1083,3.1082,0,0,0,0,0,0,2.9972,3.0017,3.0276,3.0291,3.0155,3.033,3.0361,3.0416,3.0583,3.0609,3.0518,3.0524,3.0747,3.0769,3.0789,3.085,3.0881,3.089,3.0895,3.1083,3.1083,3.1082,0,0,0,0,0,0,2.9964,2.9994,3.0266,3.0157,3.0194,3.0335,3.0396,3.0421,3.0468,3.0611,3.0638,3.0539,3.0749,3.0776,3.086,3.0861,3.0894,3.0902,3.1084,3.1083,3.1082,3.0972,0,0,0,0,0,0,2.9953,2.999,3.0008,3.0156,3.0199,3.0332,3.0397,3.0425,3.0484,3.0494,3.0638,3.0663,3.0751,3.0845,3.0869,3.0874,3.091,3.1084,3.1083,3.1083,3.0976,3.0967,3.096,0,0,0,0,0,2.994,2.9967,3.0008,3.0039,3.0225,3.0332,3.0357,3.0458,3.0483,3.0502,3.0594,3.0658,3.0857,3.0853,3.0881,3.0888,3.1085,3.1084,3.1083,3.098,3.0969,3.096,0,0,0,0,0,0,2.9815,2.9988,3.0036,3.0112,3.0206,3.0355,3.0382,3.0444,3.0533,3.054,3.0662,3.0693,3.0765,3.0836,3.0828,3.0939,3.0978,3.0982,3.089,3.0881,3.0873,3.0854,3.0917,0,0,0,0,0,2.9796,2.9869,3.0017,3.0069,3.0114,3.024,3.029,3.036,3.0463,3.0504,3.0602,3.0699,3.0784,3.0837,3.0923,3.0988,3.102,3.1007,3.0999,3.0991,3.0993,3.1032,3.1027,3.1079,3.1079,3.1079,0,0,2.9758,2.9862,2.99,3.0047,3.0128,3.02,3.0272,3.0346,3.0401,3.0515,3.06,3.0676,3.0792,3.0866,3.0904,3.0927,3.0986,3.099,3.0983,3.0989,3.103,3.1025,3.1021,3.1078,3.1078,3.1078,0,0,2.9725,2.9811,2.9864,2.9944,3.0067,3.015,3.0162,3.0303,3.0357,3.0445,3.0532,3.0599,3.0742,3.0821,3.088,3.0876,3.0938,3.0901,3.0858,3.0895,3.0891,3.0888,3.0885,3.0883,3.0903,3.0903,3.0902,0,2.9661,2.9774,2.9883,2.9951,3.0013,3.012,3.0174,3.0246,3.039,3.043,3.0454,3.0636,3.0722,3.0815,3.0814,3.0859,3.0877,3.0884,3.0882,3.0881,3.0879,3.0878,3.0877,3.0897,3.0898,3.0898,3.0899,0,2.9689,2.9766,2.9794,2.993,2.9995,3.0055,3.0173,3.0225,3.029,3.037,3.0458,3.0565,3.0674,3.0702,3.0766,3.0805,3.0815,3.0859,3.09,3.0867,3.0868,3.0868,3.0889,3.0891,3.0893,3.0894,0,0,2.9583,2.9778,2.9787,2.9849,2.9992,3.0054,3.0119,3.0226,3.0267,3.0364,3.042,3.0539,3.0581,3.0648,3.0722,3.0754,3.0742,3.0795,3.0799,3.0779,3.079,3.0754,3.0752,3.0785,3.0785,3.0786,3.078,0,2.9569,2.9691,2.9791,2.9876,2.9947,3.005,3.0107,3.0201,3.0278,3.035,3.0436,3.0517,3.0567,3.0608,3.0644,3.0735,3.0746,3.0738,3.0838,3.084,3.0803,3.0753,3.0715,3.0704,3.0781,3.0781,3.0781,0,2.9568,2.966,2.9751,2.9886,2.992,2.9969,3.0075,3.0143,3.0251,3.0305,3.0379,3.0456,3.0529,3.0564,3.0667,3.0659,3.0706,3.0757,3.076,3.0771,3.0807,3.0761,3.0704,3.07,3.0783,3.0783,3.0783,0,2.9478,2.9625,2.9698,2.9749,2.9909,2.9941,3.0009,3.0119,3.0176,3.0268,3.0307,3.0406,3.046,3.0535,3.0637,3.0654,3.0728,3.0772,3.0774,3.0771,3.0783,3.0781,3.073,3.0817,3.0817,3.0817,3.0817,0,2.9451,2.9502,2.966,2.9705,2.9765,2.988,2.9937,3.0014,3.011,3.0172,3.0268,3.0324,3.0456,3.0527,3.0608,3.0679,3.0704,3.0749,3.0769,3.0739,3.0732,3.077,3.0772,3.0817,3.0817,3.0817,3.0817,0,2.9359,2.9468,2.9554,2.9699,2.9737,2.9774,2.9898,2.9946,3.0029,3.0105,3.013,3.026,3.0349,3.0459,3.0583,3.0637,3.07,3.0732,3.0662,3.0674,3.0669,3.0667,3.0639,3.064,3.0726,3.0725,3.0725,0,2.9333,2.9375,2.9525,2.9573,2.9638,2.9714,2.9773,2.9888,2.9946,3.0072,3.0104,3.0201,3.0284,3.0421,3.0526,3.0622,3.0656,3.064,3.0671,3.0639,3.0653,3.0648,3.0652,3.063,3.0629,3.0628,3.0627,0,2.9275,2.9326,2.9408,2.9508,2.9575,2.966,2.9748,2.9782,2.9916,2.9975,3.0067,3.0132,3.0259,3.0353,3.0462,3.0533,3.0601,3.0617,3.0622,3.059,3.0547,3.0568,3.0638,3.0616,3.0617,3.0618,3.0618,3.0619,2.9215,2.9256,2.9367,2.9454,2.9533,2.9614,2.9665,2.9754,2.9833,2.9945,3.0009,3.0099,3.0207,3.036,3.0428,3.05,3.0525,3.0533,3.0534,3.0534,3.0523,3.0537,3.0521,3.0521,3.0522,3.0522,3.0522,0,2.9159,2.9236,2.9315,2.9436,2.9504,2.9564,2.9665,2.9718,2.9796,2.9891,2.9971,3.0076,3.0168,3.0281,3.038,3.0416,3.045,3.0438,3.0435,3.045,3.0497,3.0481,3.0409,3.0409,3.0409,3.0409,3.0409,3.0409,2.9138,2.921,2.9275,2.9388,2.9465,2.9553,2.9606,2.968,2.9757,2.987,2.9946,3.002,3.0122,3.023,3.0317,3.0348,3.0379,3.0357,3.0396,3.0437,3.0447,3.0456,3.0442,3.0363,3.0363,3.0344,3.0344,3.0344]},{"header":{"parameterUnit":"m.s-1","parameterCategory":1,"la1":30.2991,"la2":30.254,"lo1":-89.0895,"lo2":-89.0444,"dy":0.0017,"dx":0.0017,"nx":28,"ny":28,"refTime":"2025-05-29T03:00:00:Z","depth":0,"parameterNumber":3,"parameterNumberName":"V-component_of_WINDS"},"data":[0,0,0,0,0,0,0,0,0,0,0,0,0,0,0,0,0,0,0,0,0,0,0,0,0,0,0,0,0,0,0,0,0,0,0,0,0,0,0,0,0,0,0,0,0,0,0,0,0,0,0,0,0,0,0,0,0,0,0.8174,0.8174,0,0.8166,0.8166,0.8166,0.8088,0.8086,0.8084,0.8082,0.8076,0.8077,0.8079,0,0,0,0,0,0,0,0,0,0,0,0,0,0.8123,0.8125,0.8174,0.8174,0.8174,0.8166,0.8166,0.8166,0.8088,0.8086,0.8084,0.8081,0.8075,0.8077,0.8079,0,0,0,0,0,0,0,0,0,0,0,0,0,0.8133,0.8125,0.8174,0.8134,0.813,0.8166,0.8166,0.8165,0.8089,0.8086,0.8083,0.808,0.8075,0.8077,0.8079,0.8153,0,0,0.8087,0.8088,0,0,0,0,0,0,0,0,0.8133,0.8135,0.814,0.8137,0.8133,0.8125,0.8145,0.8161,0.809,0.8105,0.8082,0.8079,0.8095,0.8095,0.81,0.8152,0.8152,0.8087,0.8089,0.809,0.809,0,0,0,0,0,0,0,0.8132,0.8135,0.8171,0.814,0.8136,0.8117,0.8115,0.8148,0.8116,0.8103,0.8097,0.8098,0.8092,0.8098,0.8099,0.8152,0.8087,0.8089,0.8091,0.8092,0.8263,0.8266,0,0,0,0,0,0,0.8137,0.8135,0.8171,0.817,0.8126,0.812,0.8118,0.813,0.8115,0.811,0.81,0.8094,0.8095,0.8097,0.8099,0.8183,0.809,0.8092,0.8093,0.826,0.8264,0.8267,0,0,0,0,0,0,0.8136,0.8141,0.8171,0.8151,0.8154,0.8124,0.8138,0.8132,0.8137,0.8113,0.8107,0.8112,0.8093,0.8095,0.814,0.8182,0.8093,0.8095,0.8257,0.8262,0.8266,0.8353,0,0,0,0,0,0,0.8135,0.8141,0.8168,0.8152,0.8155,0.8212,0.8141,0.8134,0.8142,0.8134,0.8123,0.8118,0.8091,0.8136,0.8142,0.8184,0.8097,0.8253,0.8259,0.8264,0.8346,0.836,0.8372,0,0,0,0,0,0.8133,0.8194,0.817,0.8175,0.8188,0.8215,0.8216,0.8183,0.8145,0.8173,0.8157,0.8118,0.8176,0.8142,0.8147,0.819,0.825,0.8257,0.8264,0.834,0.8357,0.8372,0,0,0,0,0,0,0.8216,0.8191,0.8164,0.8221,0.8221,0.8201,0.8235,0.8202,0.8213,0.8205,0.8164,0.8162,0.8213,0.8206,0.8167,0.826,0.8206,0.8215,0.8263,0.8279,0.8291,0.8292,0.8099,0,0,0,0,0,0.8241,0.8264,0.8241,0.8293,0.8294,0.8265,0.8275,0.825,0.8247,0.8247,0.8234,0.8234,0.8252,0.8265,0.828,0.8345,0.8341,0.8377,0.839,0.8401,0.8409,0.8442,0.8457,0.829,0.829,0.829,0,0,0.8292,0.8281,0.8298,0.8309,0.8306,0.8331,0.8265,0.8294,0.8312,0.8251,0.8292,0.8283,0.828,0.8335,0.8358,0.8331,0.8454,0.841,0.8418,0.842,0.8451,0.8466,0.8481,0.8295,0.8294,0.8293,0,0,0.8399,0.8393,0.8435,0.8433,0.8428,0.8408,0.8419,0.8405,0.8396,0.8436,0.8391,0.8412,0.8444,0.8444,0.8448,0.8554,0.8519,0.856,0.8627,0.866,0.8673,0.8685,0.8722,0.8736,0.8568,0.8568,0.8568,0,0.8464,0.8499,0.8462,0.8494,0.85,0.8445,0.8488,0.8488,0.8489,0.8494,0.8463,0.8502,0.8496,0.855,0.8576,0.8581,0.8592,0.8561,0.8674,0.8685,0.8695,0.8731,0.8745,0.8573,0.8573,0.8572,0.8572,0,0.8578,0.8604,0.8639,0.864,0.865,0.8688,0.8657,0.8671,0.8645,0.8629,0.867,0.8661,0.8674,0.8684,0.866,0.8735,0.8718,0.8681,0.8626,0.8717,0.875,0.8763,0.858,0.8579,0.8577,0.8576,0,0,0.8737,0.8717,0.873,0.873,0.8721,0.874,0.8775,0.8786,0.8799,0.8802,0.883,0.8858,0.8824,0.8829,0.8804,0.8833,0.8917,0.8792,0.8792,0.8816,0.8999,0.9026,0.9042,0.8893,0.8896,0.8898,0.8999,0,0.8839,0.8897,0.8864,0.8927,0.895,0.8898,0.8928,0.8926,0.8912,0.8929,0.8913,0.8934,0.8888,0.889,0.8917,0.8901,0.8953,0.8893,0.8919,0.8921,0.8922,0.9059,0.9088,0.9184,0.9011,0.9013,0.9015,0,0.8965,0.8972,0.9037,0.9023,0.9031,0.9059,0.9067,0.9084,0.9081,0.9068,0.9074,0.9041,0.9074,0.902,0.9066,0.9026,0.9035,0.9029,0.9032,0.9033,0.8973,0.9064,0.9214,0.9228,0.9035,0.9033,0.9032,0,0.9074,0.91,0.9141,0.9143,0.9128,0.9149,0.9143,0.9137,0.9146,0.9153,0.9158,0.9169,0.9175,0.9185,0.9156,0.912,0.9206,0.9149,0.9196,0.9197,0.9217,0.9216,0.937,0.9223,0.9223,0.9223,0.9222,0,0.9191,0.9232,0.919,0.9216,0.9261,0.9224,0.9269,0.9259,0.9253,0.9276,0.9233,0.9255,0.9216,0.9235,0.9213,0.9254,0.9257,0.9248,0.9242,0.9252,0.9253,0.9257,0.925,0.9227,0.9226,0.9225,0.9224,0,0.9319,0.9293,0.9335,0.9317,0.9313,0.9347,0.9332,0.9355,0.9337,0.9367,0.9372,0.9345,0.9365,0.9337,0.9355,0.934,0.9396,0.938,0.9397,0.9392,0.9441,0.9436,0.9602,0.9622,0.9463,0.9465,0.9466,0,0.9396,0.9426,0.9411,0.9423,0.942,0.944,0.9449,0.9413,0.9424,0.9422,0.9446,0.9462,0.9473,0.9507,0.9489,0.9502,0.9486,0.9543,0.9488,0.9497,0.9486,0.9485,0.9488,0.9555,0.9557,0.9558,0.9559,0,0.9534,0.9519,0.9532,0.9542,0.9553,0.9559,0.9562,0.9574,0.9537,0.9551,0.9571,0.9579,0.9597,0.9613,0.9621,0.9616,0.9582,0.9577,0.9589,0.9599,0.9608,0.9603,0.9428,0.9573,0.9572,0.9571,0.957,0.957,0.9638,0.9663,0.9656,0.9673,0.9671,0.9674,0.9695,0.968,0.9695,0.9706,0.9684,0.9709,0.9705,0.9712,0.9711,0.973,0.9705,0.9722,0.9726,0.9731,0.9738,0.9605,0.9732,0.9731,0.9731,0.973,0.973,0,0.9773,0.9766,0.9782,0.9787,0.98,0.9766,0.9767,0.9781,0.9803,0.9801,0.9813,0.9835,0.9851,0.9835,0.9847,0.9866,0.9851,0.987,0.9869,0.9868,0.976,0.9748,0.9883,0.9883,0.9883,0.9883,0.9882,0.9882,0.9845,0.9885,0.987,0.9908,0.9901,0.9924,0.9928,0.9931,0.9929,0.9956,0.9969,0.9958,0.995,0.9962,0.9975,0.997,0.9976,1.0002,0.9991,0.9891,0.9876,0.9861,0.985,1.0004,1.0004,1.0097,1.0098,1.0099]}]]